QPF
0.02 0.02 0.02 0.01 0.02 0.02 0.02 0.01 0.01 0.01 0.01 0.01 0.01 0.01 0.01 0.02 0.03 0.04 0.04 0.04 0.04 0.04 0.04 0.03 0.03 0.02 0.02 0.02 0.02 0.03 0.03 0.03 0.04 0.03 0.03 0.03 0.03 0.04 0.04 0.03 0.03 0.02 0.01
0.02 0.02 0.02 0.02 0.02 0.02 0.02 0.02 0.02 0.02 0.02 0.02 0.02 0.02 0.02 0.02 0.02 0.02 0.03 0.03 0.03 0.03 0.03 0.03 0.03 0.03 0.03 0.02 0.02 0.03 0.03 0.03 0.03 0.04 0.05 0.04 0.04 0.03 0.03 0.03 0.03 0.02 0.01
0.02 0.02 0.02 0.03 0.02 0.02 0.02 0.03 0.03 0.03 0.03 0.03 0.03 0.03 0.02 0.02 0.02 0.02 0.03 0.03 0.03 0.03 0.03 0.03 0.03 0.03 0.03 0.03 0.03 0.03 0.03 0.04 0.03 0.04 0.05 0.05 0.04 0.03 0.03 0.02 0.02 0.02 0.01
0.01 0.02 0.02 0.03 0.03 0.03 0.02 0.02 0.03 0.03 0.04 0.05 0.05 0.05 0.04 0.05 0.04 0.04 0.04 0.04 0.03 0.03 0.03 0.03 0.03 0.02 0.02 0.02 0.02 0.02 0.03 0.03 0.03 0.04 0.05 0.05 0.05 0.04 0.02 0.02 0.02 0.02 0.02
0.01 0.01 0.01 0.02 0.02 0.03 0.03 0.03 0.02 0.03 0.03 0.03 0.04 0.05 0.06 0.05 0.05 0.04 0.04 0.04 0.04 0.04 0.03 0.03 0.02 0.02 0.02 0.02 0.02 0.02 0.02 0.03 0.03 0.04 0.04 0.04 0.05 0.04 0.03 0.02 0.02 0.02 0.02
0.00 0.01 0.01 0.01 0.01 0.01 0.02 0.02 0.02 0.03 0.03 0.02 0.03 0.03 0.03 0.04 0.04 0.03 0.03 0.03 0.03 0.03 0.02 0.02 0.02 0.02 0.02 0.02 0.02 0.02 0.02 0.03 0.03 0.03 0.03 0.03 0.03 0.03 0.02 0.02 0.02 0.02 0.02
0.00 0.00 0.00 0.01 0.01 0.01 0.01 0.01 0.02 0.02 0.02 0.02 0.02 0.02 0.02 0.03 0.03 0.02 0.02 0.01 0.01 0.01 0.01 0.01 0.02 0.01 0.01 0.01 0.01 0.01 0.02 0.02 0.03 0.03 0.02 0.02 0.02 0.02 0.02 0.02 0.03 0.03 0.02
0.00 0.00 0.00 0.01 0.01 0.01 0.01 0.01 0.01 0.02 0.02 0.02 0.02 0.02 0.03 0.03 0.03 0.02 0.02 0.01 0.01 0.00 0.00 0.00 0.01 0.01 0.01 0.01 0.01 0.02 0.02 0.02 0.02 0.02 0.02 0.02 0.02 0.02 0.03 0.04 0.04 0.03 0.02
0.01 0.01 0.01 0.01 0.01 0.01 0.02 0.02 0.02 0.02 0.02 0.02 0.02 0.02 0.02 0.02 0.03 0.03 0.02 0.02 0.01 0.01 0.01 0.01 0.01 0.01 0.01 0.01 0.02 0.02 0.03 0.03 0.03 0.03 0.02 0.02 0.03 0.03 0.04 0.05 0.04 0.03 0.02
0.01 0.01 0.02 0.02 0.02 0.02 0.02 0.02 0.02 0.02 0.02 0.02 0.02 0.02 0.02 0.02 0.02 0.02 0.02 0.02 0.02 0.01 0.01 0.01 0.01 0.01 0.02 0.02 0.02 0.02 0.02 0.03 0.03 0.03 0.03 0.03 0.03 0.03 0.03 0.03 0.03 0.03 0.03
0.01 0.01 0.02 0.02 0.02 0.02 0.02 0.02 0.02 0.02 0.02 0.02 0.02 0.01 0.01 0.01 0.02 0.02 0.02 0.02 0.01 0.01 0.01 0.01 0.01 0.01 0.01 0.02 0.01 0.01 0.02 0.02 0.02 0.02 0.02 0.02 0.02 0.02 0.02 0.02 0.02 0.03 0.03
0.01 0.01 0.01 0.02 0.02 0.02 0.02 0.02 0.01 0.01 0.01 0.01 0.01 0.01 0.01 0.01 0.01 0.02 0.02 0.02 0.01 0.01 0.01 0.01 0.01 0.01 0.02 0.01 0.01 0.01 0.01 0.02 0.02 0.02 0.02 0.02 0.02 0.01 0.01 0.01 0.01 0.02 0.02
0.00 0.01 0.01 0.01 0.01 0.01 0.01 0.01 0.01 0.01 0.01 0.01 0.01 0.01 0.01 0.02 0.02 0.02 0.02 0.02 0.02 0.02 0.01 0.01 0.02 0.02 0.02 0.02 0.01 0.02 0.02 0.01 0.01 0.01 0.01 0.01 0.01 0.01 0.01 0.01 0.01 0.02 0.02
0.00 0.00 0.00 0.00 0.01 0.01 0.01 0.01 0.01 0.01 0.01 0.01 0.01 0.01 0.01 0.02 0.02 0.02 0.02 0.02 0.02 0.02 0.02 0.02 0.02 0.01 0.01 0.01 0.01 0.01 0.01 0.01 0.01 0.01 0.01 0.01 0.01 0.01 0.01 0.01 0.02 0.02 0.03
0.00 0.00 0.00 0.00 0.00 0.00 0.00 0.00 0.01 0.01 0.01 0.01 0.01 0.01 0.02 0.02 0.02 0.02 0.02 0.02 0.02 0.03 0.03 0.02 0.02 0.01 0.01 0.01 0.01 0.01 0.01 0.01 0.01 0.01 0.01 0.01 0.01 0.01 0.01 0.01 0.02 0.03 0.03
0.00 0.00 0.00 0.00 0.00 0.00 0.00 0.00 0.01 0.01 0.01 0.01 0.01 0.01 0.01 0.01 0.02 0.02 0.02 0.02 0.02 0.02 0.03 0.02 0.02 0.02 0.02 0.01 0.01 0.01 0.01 0.01 0.01 0.01 0.01 0.01 0.01 0.01 0.02 0.02 0.02 0.03 0.03
0.00 0.00 0.00 0.00 0.00 0.00 0.00 0.00 0.00 0.01 0.01 0.01 0.01 0.01 0.01 0.01 0.01 0.01 0.01 0.02 0.02 0.02 0.02 0.02 0.02 0.02 0.02 0.02 0.01 0.01 0.01 0.01 0.01 0.01 0.01 0.01 0.02 0.02 0.02 0.02 0.02 0.03 0.03
0.00 0.00 0.00 0.00 0.00 0.00 0.00 0.00 0.00 0.00 0.00 0.01 0.01 0.01 0.01 0.01 0.01 0.01 0.01 0.02 0.02 0.02 0.02 0.02 0.02 0.02 0.02 0.02 0.01 0.01 0.01 0.01 0.01 0.01 0.01 0.01 0.01 0.02 0.02 0.02 0.02 0.02 0.02
0.00 0.00 0.00 0.00 0.00 0.00 0.00 0.00 0.00 0.00 0.00 0.00 0.01 0.01 0.00 0.01 0.01 0.01 0.01 0.01 0.01 0.01 0.01 0.01 0.02 0.02 0.02 0.02 0.02 0.02 0.02 0.02 0.02 0.02 0.02 0.02 0.02 0.02 0.02 0.02 0.02 0.02 0.02
0.00 0.00 0.00 0.00 0.00 0.00 0.00 0.01 0.01 0.01 0.00 0.00 0.00 0.00 0.00 0.01 0.01 0.01 0.01 0.01 0.01 0.01 0.01 0.01 0.01 0.01 0.01 0.02 0.02 0.02 0.02 0.02 0.02 0.02 0.02 0.02 0.02 0.02 0.03 0.02 0.02 0.02 0.02
0.00 0.00 0.00 0.00 0.00 0.00 0.00 0.00 0.00 0.00 0.00 0.00 0.00 0.00 0.01 0.01 0.01 0.01 0.01 0.01 0.01 0.01 0.01 0.01 0.01 0.01 0.01 0.01 0.01 0.02 0.02 0.02 0.02 0.02 0.02 0.02 0.02 0.02 0.02 0.02 0.02 0.02 0.02
0.00 0.00 0.00 0.00 0.00 0.00 0.00 0.00 0.01 0.01 0.00 0.00 0.00 0.00 0.00 0.01 0.00 0.01 0.01 0.01 0.01 0.01 0.01 0.01 0.01 0.01 0.01 0.01 0.01 0.02 0.02 0.01 0.01 0.02 0.02 0.02 0.02 0.02 0.02 0.02 0.02 0.02 0.02
0.00 0.01 0.01 0.01 0.01 0.01 0.01 0.00 0.01 0.01 0.01 0.01 0.01 0.01 0.01 0.01 0.01 0.01 0.01 0.01 0.01 0.01 0.01 0.01 0.01 0.01 0.01 0.01 0.01 0.01 0.01 0.01 0.01 0.02 0.02 0.02 0.02 0.02 0.02 0.02 0.02 0.02 0.02
0.01 0.01 0.01 0.01 0.01 0.01 0.01 0.01 0.01 0.01 0.01 0.01 0.01 0.01 0.01 0.01 0.01 0.01 0.01 0.01 0.01 0.01 0.01 0.01 0.01 0.01 0.01 0.01 0.01 0.01 0.01 0.01 0.01 0.01 0.01 0.02 0.02 0.01 0.02 0.02 0.02 0.02 0.02
0.01 0.01 0.01 0.01 0.01 0.01 0.01 0.01 0.01 0.01 0.01 0.01 0.01 0.01 0.01 0.01 0.01 0.01 0.01 0.01 0.01 0.01 0.01 0.01 0.01 0.01 0.01 0.01 0.01 0.01 0.01 0.01 0.01 0.01 0.02 0.02 0.02 0.01 0.02 0.02 0.02 0.02 0.02
0.01 0.01 0.01 0.01 0.01 0.01 0.01 0.01 0.01 0.01 0.01 0.01 0.01 0.01 0.01 0.01 0.01 0.01 0.01 0.01 0.01 0.01 0.01 0.01 0.01 0.01 0.01 0.01 0.01 0.01 0.01 0.01 0.01 0.02 0.02 0.02 0.02 0.01 0.02 0.02 0.02 0.02 0.02
MSLP
1026.16 1026.49 1026.74 1026.90 1026.94 1026.88 1026.75 1026.60 1026.46 1026.36 1026.31 1026.32 1026.35 1026.37 1026.36 1026.30 1026.18 1026.02 1025.83 1025.64 1025.49 1025.39 1025.33 1025.30 1025.26 1025.18 1025.00 1024.71 1024.28 1023.75 1023.12 1022.46 1021.79 1021.18 1020.63 1020.16 1019.77 1019.43 1019.11 1018.79 1018.45 1018.10 1017.73
1026.43 1026.79 1027.06 1027.21 1027.24 1027.18 1027.06 1026.92 1026.81 1026.75 1026.74 1026.79 1026.87 1026.94 1026.97 1026.93 1026.83 1026.67 1026.48 1026.28 1026.10 1025.96 1025.86 1025.78 1025.69 1025.56 1025.36 1025.04 1024.61 1024.07 1023.46 1022.81 1022.15 1021.53 1020.96 1020.45 1019.99 1019.56 1019.13 1018.68 1018.20 1017.70 1017.18
1026.66 1027.05 1027.33 1027.47 1027.50 1027.43 1027.31 1027.19 1027.09 1027.06 1027.09 1027.17 1027.29 1027.39 1027.46 1027.47 1027.40 1027.28 1027.12 1026.94 1026.77 1026.63 1026.53 1026.43 1026.33 1026.18 1025.96 1025.65 1025.23 1024.71 1024.13 1023.50 1022.87 1022.26 1021.68 1021.14 1020.62 1020.09 1019.54 1018.95 1018.30 1017.62 1016.91
1026.79 1027.20 1027.48 1027.63 1027.66 1027.59 1027.49 1027.38 1027.31 1027.30 1027.36 1027.48 1027.62 1027.76 1027.87 1027.91 1027.89 1027.82 1027.70 1027.57 1027.44 1027.34 1027.25 1027.17 1027.08 1026.94 1026.73 1026.44 1026.05 1025.57 1025.04 1024.46 1023.88 1023.30 1022.73 1022.17 1021.59 1020.99 1020.32 1019.59 1018.78 1017.91 1017.02
1026.75 1027.19 1027.48 1027.64 1027.69 1027.65 1027.58 1027.51 1027.48 1027.52 1027.61 1027.76 1027.93 1028.10 1028.22 1028.30 1028.32 1028.29 1028.22 1028.14 1028.06 1028.00 1027.95 1027.90 1027.83 1027.72 1027.54 1027.28 1026.94 1026.53 1026.06 1025.56 1025.04 1024.51 1023.98 1023.42 1022.83 1022.16 1021.41 1020.57 1019.62 1018.60 1017.54
1026.55 1027.01 1027.32 1027.51 1027.60 1027.62 1027.62 1027.62 1027.66 1027.75 1027.90 1028.08 1028.27 1028.45 1028.59 1028.67 1028.71 1028.71 1028.67 1028.62 1028.58 1028.56 1028.54 1028.52 1028.49 1028.41 1028.27 1028.07 1027.79 1027.45 1027.06 1026.65 1026.21 1025.76 1025.28 1024.76 1024.18 1023.50 1022.71 1021.80 1020.77 1019.64 1018.45
1026.22 1026.70 1027.05 1027.29 1027.44 1027.55 1027.64 1027.74 1027.87 1028.04 1028.25 1028.46 1028.67 1028.85 1028.98 1029.06 1029.09 1029.08 1029.05 1029.01 1028.99 1028.99 1028.99 1029.00 1028.99 1028.94 1028.85 1028.69 1028.48 1028.23 1027.93 1027.61 1027.27 1026.90 1026.50 1026.05 1025.50 1024.85 1024.07 1023.15 1022.10 1020.92 1019.67
1025.81 1026.32 1026.71 1027.02 1027.26 1027.47 1027.67 1027.89 1028.13 1028.39 1028.66 1028.91 1029.13 1029.29 1029.40 1029.45 1029.44 1029.41 1029.36 1029.31 1029.29 1029.28 1029.30 1029.31 1029.32 1029.30 1029.25 1029.14 1028.99 1028.81 1028.60 1028.37 1028.12 1027.84 1027.53 1027.15 1026.67 1026.08 1025.35 1024.47 1023.45 1022.30 1021.06
1025.39 1025.92 1026.37 1026.75 1027.09 1027.41 1027.74 1028.08 1028.42 1028.77 1029.09 1029.37 1029.59 1029.73 1029.80 1029.81 1029.76 1029.69 1029.61 1029.54 1029.51 1029.49 1029.51 1029.53 1029.55 1029.55 1029.53 1029.46 1029.36 1029.24 1029.09 1028.93 1028.75 1028.55 1028.30 1027.98 1027.57 1027.05 1026.39 1025.59 1024.66 1023.60 1022.43
1024.99 1025.55 1026.06 1026.51 1026.94 1027.37 1027.81 1028.25 1028.69 1029.10 1029.47 1029.76 1029.97 1030.09 1030.13 1030.09 1030.01 1029.91 1029.80 1029.73 1029.69 1029.68 1029.70 1029.74 1029.77 1029.79 1029.78 1029.74 1029.67 1029.57 1029.46 1029.33 1029.19 1029.01 1028.80 1028.52 1028.16 1027.69 1027.11 1026.41 1025.59 1024.65 1023.61
1024.62 1025.23 1025.78 1026.30 1026.81 1027.33 1027.86 1028.38 1028.88 1029.34 1029.72 1030.02 1030.22 1030.31 1030.32 1030.26 1030.16 1030.05 1029.96 1029.90 1029.88 1029.90 1029.95 1030.01 1030.06 1030.10 1030.10 1030.07 1030.00 1029.91 1029.79 1029.65 1029.48 1029.29 1029.07 1028.78 1028.43 1027.99 1027.47 1026.85 1026.14 1025.34 1024.45
1024.28 1024.92 1025.51 1026.10 1026.68 1027.26 1027.85 1028.42 1028.95 1029.43 1029.81 1030.10 1030.28 1030.36 1030.36 1030.31 1030.23 1030.15 1030.10 1030.09 1030.13 1030.20 1030.30 1030.40 1030.49 1030.54 1030.55 1030.51 1030.42 1030.29 1030.13 1029.93 1029.71 1029.45 1029.16 1028.82 1028.43 1027.98 1027.48 1026.91 1026.29 1025.62 1024.88
1023.93 1024.60 1025.24 1025.88 1026.51 1027.14 1027.76 1028.35 1028.89 1029.36 1029.74 1030.01 1030.18 1030.26 1030.27 1030.25 1030.22 1030.21 1030.24 1030.32 1030.45 1030.61 1030.78 1030.93 1031.06 1031.13 1031.14 1031.07 1030.94 1030.75 1030.51 1030.22 1029.89 1029.53 1029.13 1028.70 1028.23 1027.74 1027.21 1026.67 1026.10 1025.52 1024.91
1023.54 1024.26 1024.95 1025.62 1026.29 1026.95 1027.59 1028.19 1028.73 1029.18 1029.54 1029.79 1029.96 1030.05 1030.10 1030.14 1030.19 1030.27 1030.41 1030.60 1030.83 1031.08 1031.33 1031.55 1031.71 1031.79 1031.79 1031.69 1031.50 1031.23 1030.89 1030.49 1030.05 1029.56 1029.04 1028.50 1027.93 1027.36 1026.79 1026.23 1025.68 1025.15 1024.63
1023.12 1023.88 1024.61 1025.33 1026.04 1026.72 1027.37 1027.97 1028.49 1028.93 1029.28 1029.53 1029.71 1029.83 1029.93 1030.04 1030.18 1030.36 1030.61 1030.91 1031.24 1031.59 1031.90 1032.16 1032.35 1032.43 1032.40 1032.25 1032.00 1031.65 1031.21 1030.71 1030.16 1029.56 1028.93 1028.27 1027.62 1026.96 1026.33 1025.73 1025.18 1024.66 1024.17
1022.68 1023.48 1024.25 1025.01 1025.75 1026.46 1027.13 1027.73 1028.26 1028.69 1029.04 1029.30 1029.50 1029.66 1029.82 1030.00 1030.22 1030.50 1030.84 1031.23 1031.63 1032.03 1032.38 1032.66 1032.84 1032.90 1032.83 1032.63 1032.31 1031.89 1031.39 1030.81 1030.18 1029.50 1028.80 1028.07 1027.35 1026.64 1025.96 1025.32 1024.73 1024.19 1023.70
1022.24 1023.07 1023.88 1024.68 1025.46 1026.20 1026.89 1027.51 1028.05 1028.50 1028.86 1029.15 1029.38 1029.59 1029.80 1030.04 1030.33 1030.68 1031.07 1031.50 1031.94 1032.35 1032.69 1032.95 1033.09 1033.10 1032.98 1032.73 1032.36 1031.89 1031.35 1030.74 1030.07 1029.38 1028.65 1027.91 1027.17 1026.44 1025.74 1025.07 1024.45 1023.88 1023.34
1021.83 1022.68 1023.52 1024.35 1025.16 1025.93 1026.66 1027.31 1027.88 1028.36 1028.75 1029.08 1029.35 1029.61 1029.87 1030.15 1030.48 1030.85 1031.27 1031.69 1032.11 1032.48 1032.78 1032.97 1033.05 1032.99 1032.81 1032.51 1032.10 1031.61 1031.06 1030.46 1029.82 1029.16 1028.48 1027.78 1027.08 1026.38 1025.69 1025.03 1024.39 1023.78 1023.19
1021.46 1022.30 1023.15 1024.01 1024.85 1025.65 1026.41 1027.10 1027.71 1028.24 1028.68 1029.05 1029.37 1029.67 1029.97 1030.28 1030.62 1030.99 1031.38 1031.76 1032.12 1032.42 1032.63 1032.73 1032.72 1032.59 1032.34 1031.99 1031.56 1031.07 1030.55 1029.99 1029.43 1028.84 1028.25 1027.65 1027.04 1026.42 1025.79 1025.15 1024.52 1023.89 1023.26
1021.10 1021.93 1022.78 1023.64 1024.50 1025.33 1026.13 1026.86 1027.51 1028.08 1028.58 1029.00 1029.37 1029.71 1030.03 1030.36 1030.70 1031.04 1031.38 1031.70 1031.97 1032.17 1032.28 1032.28 1032.17 1031.96 1031.64 1031.26 1030.81 1030.34 1029.86 1029.38 1028.90 1028.43 1027.97 1027.49 1027.00 1026.49 1025.95 1025.37 1024.77 1024.15 1023.49
1020.73 1021.54 1022.37 1023.22 1024.09 1024.94 1025.76 1026.52 1027.22 1027.84 1028.38 1028.86 1029.27 1029.64 1029.99 1030.33 1030.66 1030.97 1031.26 1031.51 1031.69 1031.80 1031.80 1031.71 1031.50 1031.21 1030.84 1030.42 1029.97 1029.51 1029.08 1028.67 1028.29 1027.94 1027.60 1027.26 1026.90 1026.51 1026.07 1025.59 1025.05 1024.45 1023.80
1020.31 1021.09 1021.90 1022.74 1023.60 1024.46 1025.30 1026.08 1026.81 1027.47 1028.05 1028.56 1029.02 1029.43 1029.80 1030.14 1030.46 1030.75 1031.00 1031.19 1031.31 1031.33 1031.26 1031.08 1030.81 1030.45 1030.03 1029.58 1029.12 1028.68 1028.28 1027.92 1027.62 1027.36 1027.13 1026.91 1026.67 1026.40 1026.08 1025.69 1025.23 1024.69 1024.07
1019.82 1020.57 1021.37 1022.20 1023.05 1023.91 1024.74 1025.54 1026.28 1026.96 1027.57 1028.11 1028.60 1029.03 1029.43 1029.78 1030.11 1030.39 1030.62 1030.78 1030.85 1030.83 1030.70 1030.47 1030.15 1029.75 1029.30 1028.82 1028.34 1027.90 1027.51 1027.18 1026.92 1026.72 1026.56 1026.42 1026.28 1026.11 1025.88 1025.59 1025.22 1024.76 1024.22
1019.26 1020.01 1020.79 1021.62 1022.46 1023.31 1024.14 1024.93 1025.67 1026.35 1026.97 1027.52 1028.03 1028.48 1028.89 1029.27 1029.61 1029.89 1030.12 1030.28 1030.34 1030.30 1030.16 1029.91 1029.56 1029.13 1028.65 1028.14 1027.65 1027.18 1026.78 1026.44 1026.19 1026.00 1025.87 1025.78 1025.70 1025.60 1025.46 1025.27 1024.99 1024.63 1024.17
1018.67 1019.42 1020.22 1021.05 1021.89 1022.73 1023.54 1024.31 1025.03 1025.70 1026.31 1026.86 1027.36 1027.82 1028.25 1028.64 1028.99 1029.29 1029.53 1029.70 1029.77 1029.74 1029.60 1029.35 1029.00 1028.56 1028.06 1027.53 1027.01 1026.51 1026.07 1025.70 1025.42 1025.21 1025.08 1024.99 1024.94 1024.89 1024.82 1024.70 1024.52 1024.25 1023.90
1018.09 1018.88 1019.70 1020.54 1021.38 1022.20 1022.99 1023.73 1024.42 1025.06 1025.64 1026.17 1026.65 1027.11 1027.53 1027.92 1028.28 1028.60 1028.86 1029.04 1029.14 1029.12 1029.00 1028.76 1028.41 1027.97 1027.47 1026.92 1026.36 1025.83 1025.34 1024.93 1024.59 1024.35 1024.18 1024.08 1024.03 1024.01 1023.98 1023.93 1023.83 1023.67 1023.42
Thickness
5538 5535 5533 5530 5527 5524 5521 5518 5515 5512 5509 5505 5502 5498 5495 5491 5487 5484 5481 5477 5474 5470 5465 5461 5457 5452 5447 5442 5437 5433 5429 5424 5421 5422 5419 5417 5413 5410 5407 5404 5401 5398 5396
5532 5529 5527 5524 5520 5517 5514 5511 5508 5505 5502 5498 5495 5491 5488 5484 5480 5476 5473 5469 5465 5461 5457 5452 5448 5443 5438 5433 5428 5424 5420 5416 5411 5410 5409 5405 5403 5399 5396 5393 5391 5388 5386
5525 5522 5519 5517 5514 5511 5507 5504 5501 5498 5494 5490 5487 5483 5480 5476 5472 5469 5465 5461 5457 5453 5448 5443 5438 5433 5428 5423 5418 5414 5410 5406 5402 5398 5397 5394 5391 5388 5385 5382 5380 5377 5376
5516 5514 5511 5509 5507 5503 5500 5496 5493 5489 5486 5482 5479 5475 5472 5468 5464 5460 5456 5452 5448 5444 5439 5434 5429 5424 5419 5414 5409 5405 5400 5396 5392 5387 5384 5382 5379 5376 5372 5370 5369 5367 5365
5507 5504 5503 5500 5498 5494 5491 5488 5484 5481 5478 5474 5470 5467 5463 5460 5456 5451 5447 5443 5439 5434 5429 5424 5420 5415 5410 5405 5400 5396 5391 5386 5382 5377 5373 5370 5367 5364 5361 5359 5356 5356 5355
5498 5496 5493 5490 5487 5484 5482 5478 5475 5472 5468 5465 5461 5458 5455 5451 5447 5442 5438 5433 5429 5424 5419 5414 5409 5405 5400 5396 5391 5387 5382 5377 5373 5368 5364 5361 5359 5355 5352 5348 5345 5342 5343
5488 5485 5483 5480 5478 5475 5472 5468 5465 5462 5459 5455 5451 5447 5444 5441 5437 5433 5428 5424 5420 5415 5410 5405 5400 5396 5390 5386 5381 5377 5372 5367 5364 5360 5356 5353 5350 5346 5342 5338 5334 5332 5331
5476 5474 5472 5469 5467 5464 5460 5458 5455 5452 5448 5445 5441 5437 5434 5431 5427 5423 5418 5414 5410 5405 5400 5396 5391 5387 5382 5377 5372 5368 5363 5359 5355 5351 5348 5345 5340 5336 5332 5328 5325 5321 5319
5464 5463 5461 5459 5457 5454 5451 5448 5444 5441 5438 5435 5431 5427 5424 5421 5417 5413 5408 5404 5400 5396 5391 5386 5382 5377 5374 5368 5363 5359 5355 5351 5347 5342 5338 5334 5330 5326 5321 5317 5312 5308 5308
5455 5453 5450 5448 5446 5444 5441 5438 5434 5431 5428 5424 5421 5417 5413 5410 5406 5403 5398 5394 5390 5386 5381 5377 5372 5368 5364 5359 5354 5350 5346 5343 5337 5333 5328 5324 5319 5315 5310 5305 5301 5295 5293
5444 5442 5440 5438 5436 5433 5430 5427 5423 5420 5417 5414 5410 5407 5402 5399 5396 5392 5388 5384 5380 5376 5372 5368 5364 5359 5355 5350 5345 5341 5337 5332 5326 5321 5317 5312 5308 5304 5300 5296 5291 5285 5281
5432 5431 5429 5426 5424 5421 5418 5414 5410 5407 5404 5401 5398 5395 5392 5388 5385 5382 5379 5375 5371 5366 5363 5359 5354 5350 5345 5341 5336 5331 5326 5320 5313 5308 5305 5302 5298 5295 5291 5287 5282 5277 5273
5420 5419 5417 5414 5411 5409 5406 5402 5398 5394 5391 5389 5386 5385 5382 5378 5374 5371 5368 5364 5360 5356 5353 5349 5344 5339 5335 5330 5326 5320 5314 5308 5302 5297 5295 5292 5289 5285 5281 5277 5273 5269 5266
5407 5406 5404 5401 5398 5395 5392 5389 5386 5383 5380 5378 5375 5373 5371 5367 5364 5360 5356 5352 5348 5344 5341 5337 5333 5328 5323 5319 5314 5309 5303 5297 5292 5288 5285 5282 5278 5274 5270 5266 5262 5259 5257
5394 5393 5390 5388 5385 5382 5379 5377 5375 5373 5370 5368 5366 5363 5359 5357 5355 5351 5345 5342 5338 5333 5328 5323 5319 5314 5310 5306 5301 5296 5291 5285 5280 5277 5273 5270 5267 5264 5260 5256 5251 5247 5244
5380 5379 5376 5374 5372 5369 5366 5363 5362 5361 5359 5356 5354 5351 5349 5347 5344 5340 5336 5332 5327 5322 5315 5310 5306 5302 5298 5293 5288 5284 5279 5275 5270 5266 5262 5259 5256 5253 5250 5246 5241 5237 5235
5366 5365 5362 5360 5358 5355 5353 5351 5350 5348 5345 5344 5342 5339 5337 5334 5331 5328 5324 5320 5314 5308 5301 5297 5293 5289 5284 5280 5275 5270 5266 5262 5258 5254 5250 5248 5245 5242 5238 5235 5232 5228 5225
5351 5349 5347 5346 5344 5342 5340 5337 5335 5334 5332 5330 5328 5326 5324 5321 5318 5314 5310 5304 5298 5293 5289 5284 5280 5276 5272 5267 5263 5258 5254 5249 5244 5241 5238 5236 5233 5230 5227 5224 5221 5217 5214
5335 5335 5333 5331 5329 5327 5325 5322 5320 5318 5317 5315 5313 5312 5309 5306 5303 5299 5294 5288 5284 5280 5276 5272 5267 5263 5259 5254 5250 5246 5241 5237 5233 5229 5226 5224 5222 5219 5217 5214 5210 5207 5202
5320 5320 5318 5316 5314 5312 5310 5308 5306 5304 5303 5301 5300 5298 5294 5290 5287 5283 5279 5274 5271 5268 5264 5260 5255 5250 5246 5241 5237 5233 5229 5225 5222 5218 5215 5213 5210 5208 5206 5203 5200 5196 5193
5305 5304 5303 5302 5300 5299 5297 5295 5293 5291 5289 5288 5286 5284 5282 5277 5274 5270 5266 5263 5259 5255 5251 5247 5243 5238 5233 5229 5224 5220 5217 5214 5210 5207 5205 5202 5199 5196 5194 5191 5188 5185 5181
5290 5289 5288 5288 5287 5285 5283 5281 5279 5277 5276 5273 5272 5269 5268 5264 5260 5257 5254 5251 5247 5243 5239 5234 5230 5226 5221 5217 5212 5208 5205 5202 5199 5195 5192 5190 5187 5184 5181 5178 5175 5173 5170
5275 5274 5273 5272 5271 5270 5268 5267 5265 5263 5262 5260 5258 5256 5253 5250 5247 5244 5241 5238 5234 5230 5226 5222 5218 5214 5210 5206 5201 5197 5194 5191 5188 5185 5181 5179 5176 5173 5170 5168 5165 5162 5160
5260 5260 5259 5258 5257 5256 5255 5253 5251 5250 5248 5246 5244 5242 5240 5238 5235 5232 5228 5225 5221 5218 5214 5210 5207 5204 5200 5196 5192 5188 5185 5182 5178 5175 5172 5169 5166 5164 5161 5158 5156 5154 5152
5246 5246 5245 5244 5243 5242 5241 5239 5238 5236 5234 5232 5230 5228 5226 5224 5221 5219 5215 5212 5208 5205 5202 5199 5196 5193 5190 5187 5184 5180 5177 5174 5170 5167 5164 5161 5158 5155 5152 5150 5148 5145 5143
5233 5233 5232 5231 5230 5228 5227 5226 5225 5223 5220 5219 5217 5214 5212 5210 5207 5205 5202 5199 5196 5194 5191 5189 5186 5184 5181 5178 5176 5173 5170 5168 5165 5161 5158 5154 5151 5148 5145 5142 5140 5138 5136